Tracking 25701 objects as of 3-Jul-2022
HD Live streaming from Space Station
objects crossing your sky now

FENGYUN 1C DEB

Track FENGYUN 1C DEB now!
10-day predictions


NORAD ID: 29897
Int'l Code: 1999-025GT
Perigee: 842.3 km
Apogee: 1,319.6 km
Inclination: 98.6 °
Period: 106.7 minutes
Semi major axis: 7451 km
RCS: 0.0153 m2 (small)
Launch date: May 10, 1999
Source: People's Republic of China (PRC)
Launch site: Taiyaun Space Center, China (TSC)

Note: This is SATELLITE DEBRIS
aabbcc
Your satellite tracking list
Your tracking list is empty




NASA's NSSDC Master Catalog

Two Line Element Set (TLE):
1 29897U 99025GT  22184.54334677  .00000812  00000-0  97452-3 0  9997
2 29897  98.6142 191.6125 0320252 149.8000 339.4555 13.49583757759353
Source of the keplerian elements: AFSPC